Flag for Turkey Weather past 2 weeks in Izmir, Turkey

Now
50 °F

Passing clouds.


Feels Like: 48 °F
Forecast: 53 / 69 °F
Wind: 6 mph from South

Location: Izmir / Adnan Menderes

Current Time: Mar 6, 2015 at 11:43:01 PM

Latest Report: Mar 6, 2015 at 10:50 PM


Visibility: N/A

Pressure: 30.07 "Hg

Humidity: 76%

Dew point: 43 °F

Location of IzmirLocation

Historic Weather in Izmir — Graph

°F

Izmir temperature yesterday

Maximum temperature yesterday: 63 °F (at 2:20 PM)
Minimum temperature yesterday: 32 °F (at 5:20 AM)
Average temperature yesterday: 49 °F

Past Weeks' High & Low Weather Summary

 TemperatureHumidityPressure
High64 °F (Feb 26, 2:20 PM)100% (Feb 23, 1:20 PM)30.27 "Hg (Feb 23, 1:20 PM)
Low30 °F (Feb 22, 1:50 AM)29% (Mar 4, 12:50 PM)29.68 "Hg (Feb 27, 4:50 PM)
Average50 °F78%29.99 "Hg
* Reported Feb 19 10:50 PM — Mar 6 10:20 PM, Izmir, Weather by CustomWeather, © 2015

Note: Actual official high and low records may vary slightly from our data, if they occured in-between our weather recording intervals... More about our weather records

Advertising

Izmir weather history for previous 24 hours

 ConditionsComfort  
Time TempWeatherWind HumidityBarometerVisibility
10:20 PM
Fri, Mar 6
50 °FPassing clouds.7 mph76%30.07 "HgN/A
9:50 PM52 °FClear.6 mph72%30.07 "Hg10 mi
9:20 PM54 °FPassing clouds.7 mph72%30.07 "HgN/A
8:50 PM54 °FClear.7 mph72%30.07 "Hg10 mi
8:20 PM54 °FClear.12 mph77%30.07 "Hg10 mi
7:50 PM57 °FClear.14 mph63%30.07 "Hg10 mi
7:20 PM55 °FClear.14 mph72%30.04 "Hg10 mi
6:50 PM57 °FPassing clouds.12 mph67%30.04 "HgN/A
6:20 PM59 °FPassing clouds.10 mph63%30.04 "HgN/A
5:50 PM61 °FBroken clouds.9 mph63%30.04 "HgN/A
5:20 PM61 °FBroken clouds.10 mph63%30.04 "HgN/A
4:50 PM63 °FBroken clouds.13 mph59%30.04 "HgN/A
4:20 PM63 °FBroken clouds.14 mph59%30.04 "HgN/A
3:50 PM63 °FBroken clouds.10 mph64%30.04 "HgN/A
3:20 PM63 °FBroken clouds.14 mph64%30.04 "HgN/A
2:50 PM63 °FPartly sunny.16 mph59%30.04 "HgN/A
2:20 PM63 °FPartly sunny.8 mph64%30.07 "HgN/A
1:50 PM63 °FPartly sunny.10 mph64%30.07 "HgN/A
1:20 PM63 °FBroken clouds.12 mph64%30.07 "HgN/A
12:50 PM63 °FBroken clouds.15 mph59%30.07 "HgN/A
12:20 PM61 °FBroken clouds.13 mph63%30.09 "HgN/A
11:50 AM61 °FBroken clouds.14 mph63%30.09 "HgN/A
11:20 AM59 °FBroken clouds.13 mph63%30.09 "HgN/A
10:50 AM59 °FBroken clouds.12 mph63%30.09 "HgN/A
10:20 AM57 °FBroken clouds.13 mph67%30.09 "HgN/A
9:50 AM57 °FBroken clouds.10 mph67%30.09 "HgN/A
9:20 AM57 °FBroken clouds.10 mph67%30.09 "HgN/A
8:50 AM54 °FBroken clouds.10 mph77%30.09 "HgN/A
8:20 AM54 °FScattered clouds.6 mph77%30.12 "HgN/A
7:50 AM50 °FScattered clouds.7 mph82%30.12 "HgN/A
7:20 AM50 °FScattered clouds.8 mph82%30.09 "HgN/A
6:50 AM48 °FPartly sunny.7 mph87%30.09 "HgN/A
6:20 AM50 °FPassing clouds.7 mph82%30.09 "HgN/A
5:50 AM50 °FPassing clouds.7 mph76%30.09 "HgN/A
5:20 AM48 °FPassing clouds.7 mph82%30.09 "HgN/A
4:50 AM50 °FPassing clouds.10 mph82%30.07 "HgN/A
4:20 AM50 °FPassing clouds.9 mph82%30.09 "HgN/A
3:50 AM50 °FPassing clouds.10 mph82%30.07 "HgN/A
3:20 AM54 °FPassing clouds.13 mph72%30.07 "HgN/A
2:50 AM52 °FPassing clouds.9 mph77%30.09 "HgN/A
2:20 AM52 °FPassing clouds.9 mph77%30.09 "HgN/A
1:50 AM50 °FPassing clouds.8 mph82%30.09 "HgN/A
1:20 AM50 °FPassing clouds.8 mph82%30.09 "HgN/A
12:50 AM50 °FPassing clouds.9 mph82%30.09 "HgN/A
12:20 AM50 °FPassing clouds.9 mph82%30.09 "HgN/A
11:50 PM
Thu, Mar 5
50 °FPassing clouds.6 mph76%30.09 "HgN/A
11:20 PM50 °FPassing clouds.8 mph76%30.09 "HgN/A
Weather by CustomWeather, © 2015

See weather overviewHow to use our weather pages